Home   Weather   Charleston   Past weeks

Flag for USA Past Weather in Charleston, South Carolina, USA — Yesterday and Last 2 Weeks

Now
59 °F

Passing clouds.


Feels Like: 58 °F
Forecast: 64 / 73 °F
Wind: 7 mph from Southwest

Location: Charleston Air Force Base Reporting Station

Current Time: Jan 22, 2017 at 1:13:39 am

Latest Report: Jan 21, 2017 at 11:56 pm


Visibility: 10 mi

Pressure: 29.71 "Hg

Humidity: 93%

Dew Point: 57 °F

Location of CharlestonLocation

Past Weather in Charleston — Graph

°F

Charleston Temperature Yesterday

Maximum temperature yesterday: 69 °F (at 12:56 pm)
Minimum temperature yesterday: 57 °F (at 10:56 pm)
Average temperature yesterday: 65 °F

High & Low Weather Summary for the Past Weeks

 TemperatureHumidityPressure
High80 °F (Jan 13, 2:56 pm)100% (Jan 10, 9:56 pm)30.78 "Hg (Jan 10, 9:56 pm)
Low23 °F (Jan 8, 6:56 am)25% (Jan 8, 2:56 pm)29.69 "Hg (Jan 21, 8:56 pm)
Average55 °F78%30.25 "Hg
* Reported Jan 6 11:38 pm — Jan 21 11:56 pm, Charleston, Weather by CustomWeather, © 2017

Note: Actual official high and low records may vary slightly from our data, if they occured in-between our weather recording intervals... More about our weather records

Advertising

Charleston Weather History for the Previous 24 Hours

Scroll right to see more
 ConditionsComfort  
Time TempWeatherWind HumidityBarometerVisibility
11:56 pm
Sat, Jan 21
59 °FPassing clouds.7 mph93%29.71 "Hg10 mi
11:40 pm60 °FPassing clouds.8 mph90%29.72 "Hg10 mi
10:56 pm57 °FPassing clouds.6 mph96%29.72 "Hg10 mi
9:56 pm60 °FMostly cloudy.6 mph90%29.72 "Hg10 mi
8:56 pm61 °FOvercast.13 mph90%29.69 "Hg10 mi
7:56 pm61 °FLight rain. Mostly cloudy.15 mph90%29.75 "Hg9 mi
6:56 pm61 °FOvercast.8 mph93%29.75 "Hg10 mi
5:56 pm63 °FLight rain. Mostly cloudy.13 mph87%29.74 "Hg8 mi
5:22 pm65 °FLight rain. More clouds than sun.18 mph87%29.73 "Hg8 mi
5:05 pm66 °FThunderstorms. More clouds than sun.14 mph87%29.72 "Hg4 mi
4:31 pm66 °FThunderstorms. Mostly cloudy.16 mph94%29.70 "Hg4 mi
4:20 pm67 °FLight rain. Mostly cloudy.14 mph90%29.72 "Hg8 mi
3:56 pm67 °FMostly cloudy.15 mph90%29.73 "Hg10 mi
3:09 pm68 °FMostly cloudy.13 mph90%29.74 "Hg10 mi
2:56 pm68 °FMostly cloudy.12 mph90%29.74 "Hg10 mi
2:13 pm67 °FLow clouds.12 mph93%29.78 "Hg7 mi
1:56 pm67 °FLow clouds.10 mph93%29.78 "Hg8 mi
1:16 pm68 °FLight rain. Fog.10 mph93%29.80 "Hg3 mi
12:56 pm69 °FPartly sunny.8 mph90%29.81 "Hg10 mi
12:10 pm68 °FBroken clouds.10 mph93%29.85 "Hg9 mi
11:56 am67 °FFog.9 mph93%29.85 "Hg6 mi
11:44 am67 °FLight rain. Fog.9 mph93%29.86 "Hg4 mi
11:30 am66 °FRain. Fog.6 mph93%29.88 "Hg2 mi
11:18 am66 °FRain. Fog.No wind93%29.89 "Hg3 mi
11:03 am66 °FThundershowers. Fog.7 mph93%29.91 "Hg3 mi
10:40 am65 °FHeavy rain. Fog.6 mph97%29.91 "Hg1 mi
10:28 am65 °FThundershowers. Fog.6 mph97%29.92 "Hg1 mi
9:56 am66 °FFog.3 mph93%29.91 "Hg1 mi
9:40 am65 °FFog.6 mph97%29.91 "Hg1 mi
9:12 am65 °FFog.6 mph97%29.89 "Hg3 mi
9:05 am65 °FFog.8 mph97%29.90 "Hg2 mi
8:56 am65 °FFog.7 mph94%29.89 "Hg3 mi
8:18 am65 °FLow clouds.6 mph94%29.90 "Hg7 mi
7:56 am65 °FOvercast.3 mph94%29.88 "Hg8 mi
7:22 am64 °FMostly cloudy.3 mph94%29.88 "Hg9 mi
6:56 am64 °FPassing clouds.6 mph94%29.88 "Hg8 mi
6:35 am65 °FMostly cloudy.5 mph94%29.88 "Hg10 mi
5:56 am65 °FMostly cloudy.6 mph94%29.87 "Hg10 mi
5:08 am65 °FMostly cloudy.5 mph94%29.87 "Hg9 mi
3:56 am64 °FOvercast.6 mph94%29.88 "Hg9 mi
2:56 am64 °FPartly cloudy.3 mph94%29.90 "Hg10 mi
1:56 am65 °FPartly cloudy.8 mph91%29.90 "Hg10 mi
Weather by CustomWeather, © 2017

See weather overviewHow to use our weather pages